RYR52KD LIME-LGKR

Flight info

Callsign RYR52KD
Flight time 1h 39m
Altitude 37000
Route LOGDI DCT LURUT DCT IBENI DCT KOFER DCT RODON DCT LIMJA N732 PITAS
Aircraft B738/M-SDE3FGILRWY/SB1

Departure

Time 2026-05-04 07:15
Airport Il Caravaggio International Airport (LIME)

Arrival

Time 2026-05-04 08:54
Airport Corfu Ioannis Kapodistrias International Airport (LGKR)
Time Latitude Longitude Altitude Speed Heading
2026-05-04 06:48 45.66532 9.70703 786 ft 0 kts 195°
2026-05-04 07:08 45.66616 9.70681 786 ft 0 kts 105°
2026-05-04 07:12 45.66554 9.71016 786 ft 10 kts 105°
2026-05-04 07:12 45.66530 9.71131 786 ft 15 kts 112°
2026-05-04 07:12 45.66489 9.71293 786 ft 20 kts 105°
2026-05-04 07:12 45.66447 9.71507 786 ft 24 kts 103°
2026-05-04 07:13 45.66463 9.71741 786 ft 23 kts 73°
2026-05-04 07:13 45.66454 9.71963 786 ft 22 kts 104°
2026-05-04 07:13 45.66417 9.72177 786 ft 22 kts 104°
2026-05-04 07:14 45.66464 9.72404 786 ft 2 kts 288°
2026-05-04 07:14 45.66513 9.72144 786 ft 62 kts 285°
2026-05-04 07:15 45.66684 9.71215 786 ft 128 kts 284°
2026-05-04 07:15 45.66956 9.69729 888 ft 173 kts 285°
2026-05-04 07:15 45.67254 9.68060 1639 ft 174 kts 278°
2026-05-04 07:15 45.67018 9.66304 2182 ft 197 kts 239°
2026-05-04 07:16 45.65941 9.65005 2661 ft 208 kts 209°
2026-05-04 07:16 45.64753 9.63796 3198 ft 217 kts 227°
2026-05-04 07:16 45.63736 9.62102 3552 ft 233 kts 231°
2026-05-04 07:16 45.62605 9.60303 3888 ft 255 kts 227°
2026-05-04 07:17 45.61345 9.58384 4511 ft 271 kts 226°
2026-05-04 07:17 45.59998 9.56470 5288 ft 275 kts 223°
2026-05-04 07:17 45.58626 9.54568 6191 ft 274 kts 223°
2026-05-04 07:17 45.57222 9.52748 7098 ft 273 kts 214°
2026-05-04 07:18 45.55460 9.51672 7778 ft 278 kts 188°
2026-05-04 07:18 45.53576 9.51989 8762 ft 276 kts 158°
2026-05-04 07:18 45.51879 9.53208 9800 ft 269 kts 158°
2026-05-04 07:18 45.50178 9.54293 10584 ft 272 kts 160°
2026-05-04 07:19 45.48372 9.55356 10987 ft 287 kts 161°
2026-05-04 07:19 45.46519 9.56390 11841 ft 283 kts 161°
2026-05-04 07:19 45.44710 9.57459 12737 ft 282 kts 160°
2026-05-04 07:19 45.42894 9.58551 13507 ft 285 kts 160°
2026-05-04 07:20 45.41061 9.59655 14254 ft 288 kts 160°
2026-05-04 07:20 45.39200 9.60774 14930 ft 292 kts 160°
2026-05-04 07:20 45.37317 9.61905 15608 ft 296 kts 159°
2026-05-04 07:20 45.35457 9.63229 16284 ft 303 kts 151°
2026-05-04 07:22 45.21538 9.76311 19581 ft 370 kts 148°
2026-05-04 07:22 45.19368 9.78313 20145 ft 375 kts 148°
2026-05-04 07:23 45.17164 9.80340 20709 ft 379 kts 149°
2026-05-04 07:23 45.14941 9.82383 21250 ft 384 kts 149°
2026-05-04 07:23 45.12684 9.84453 21752 ft 389 kts 149°
2026-05-04 07:23 45.10403 9.86545 22293 ft 393 kts 149°
2026-05-04 07:24 45.08094 9.88659 22846 ft 397 kts 149°
2026-05-04 07:24 45.05763 9.90791 23372 ft 401 kts 149°
2026-05-04 07:24 45.03414 9.92939 23844 ft 405 kts 149°
2026-05-04 07:24 45.01042 9.95107 24302 ft 407 kts 149°
2026-05-04 07:25 44.98641 9.97244 24795 ft 409 kts 151°
2026-05-04 07:26 44.81025 10.11648 27763 ft 427 kts 153°
2026-05-04 07:27 44.78454 10.13755 28161 ft 429 kts 153°
2026-05-04 07:27 44.75865 10.15875 28548 ft 432 kts 153°
2026-05-04 07:27 44.73295 10.18095 28915 ft 437 kts 145°
2026-05-04 07:27 44.71211 10.21243 29381 ft 446 kts 127°
2026-05-04 07:28 44.69825 10.25168 29784 ft 453 kts 112°
2026-05-04 07:28 44.68813 10.29389 30027 ft 459 kts 110°
2026-05-04 07:28 44.67842 10.33686 30263 ft 464 kts 110°
2026-05-04 07:28 44.66883 10.37959 30556 ft 466 kts 110°
2026-05-04 07:29 44.65895 10.42297 30897 ft 466 kts 110°
2026-05-04 07:29 44.64891 10.46619 31216 ft 467 kts 110°
2026-05-04 07:29 44.63869 10.50949 31554 ft 467 kts 110°
2026-05-04 07:29 44.62886 10.55300 31911 ft 467 kts 109°
2026-05-04 07:30 44.61887 10.59629 32326 ft 465 kts 111°
2026-05-04 07:30 44.60835 10.63902 32764 ft 462 kts 111°
2026-05-04 07:30 44.59774 10.68147 33189 ft 460 kts 111°
2026-05-04 07:30 44.58722 10.72384 33567 ft 459 kts 110°
2026-05-04 07:31 44.57683 10.76616 33936 ft 458 kts 110°
2026-05-04 07:31 44.56655 10.80837 34299 ft 457 kts 110°
2026-05-04 07:33 44.50320 11.10559 36248 ft 456 kts 103°
2026-05-04 07:33 44.49670 11.14893 36513 ft 455 kts 103°
2026-05-04 07:33 44.49011 11.19228 36783 ft 454 kts 103°
2026-05-04 07:33 44.48341 11.23549 37035 ft 454 kts 103°
2026-05-04 07:34 44.47657 11.27866 37136 ft 456 kts 104°
2026-05-04 07:34 44.46958 11.32216 37124 ft 459 kts 104°
2026-05-04 07:34 44.45538 11.40937 37124 ft 458 kts 104°
2026-05-04 07:35 44.44134 11.49496 37132 ft 452 kts 104°
2026-05-04 07:35 44.42722 11.58062 37138 ft 451 kts 104°
2026-05-04 07:36 44.41309 11.66601 37134 ft 450 kts 104°
2026-05-04 07:38 44.35588 12.00755 37124 ft 453 kts 104°
2026-05-04 07:38 44.34131 12.09340 37115 ft 454 kts 104°
2026-05-04 07:39 44.32666 12.17940 37123 ft 455 kts 104°
2026-05-04 07:39 44.31192 12.26548 37119 ft 457 kts 104°
2026-05-04 07:40 44.29720 12.35103 37119 ft 457 kts 104°
2026-05-04 07:40 44.28238 12.43672 37117 ft 458 kts 104°
2026-05-04 07:41 44.26746 12.52257 37130 ft 458 kts 104°
2026-05-04 07:41 44.25299 12.60546 37122 ft 458 kts 104°
2026-05-04 07:42 44.23813 12.69016 37125 ft 458 kts 104°
2026-05-04 07:42 44.22297 12.77620 37124 ft 458 kts 104°
2026-05-04 07:43 44.20800 12.86076 37120 ft 458 kts 104°
2026-05-04 07:43 44.19330 12.94335 37119 ft 458 kts 104°
2026-05-04 07:44 44.17798 13.02908 37119 ft 458 kts 104°
2026-05-04 07:44 44.16253 13.11509 37117 ft 458 kts 104°
2026-05-04 07:45 44.14704 13.20100 37114 ft 458 kts 104°
2026-05-04 07:45 44.13147 13.28686 37118 ft 458 kts 104°
2026-05-04 07:46 44.11597 13.37199 37118 ft 458 kts 104°
2026-05-04 07:46 44.10025 13.45788 37116 ft 458 kts 104°
2026-05-04 07:47 44.08457 13.54319 37112 ft 459 kts 104°
2026-05-04 07:49 44.02350 13.87166 37124 ft 460 kts 104°
2026-05-04 07:49 44.00209 13.95506 37117 ft 459 kts 119°
2026-05-04 07:50 43.97057 14.03216 37126 ft 459 kts 121°
2026-05-04 07:50 43.93855 14.10890 37124 ft 460 kts 120°
2026-05-04 07:51 43.90674 14.18587 37126 ft 460 kts 120°
2026-05-04 07:51 43.87510 14.26295 37123 ft 461 kts 120°
2026-05-04 07:52 43.84412 14.33845 37133 ft 462 kts 120°
2026-05-04 07:52 43.81213 14.41621 37127 ft 462 kts 120°
2026-05-04 07:54 43.68435 14.72456 37128 ft 463 kts 120°
2026-05-04 07:55 43.65223 14.80155 37131 ft 463 kts 120°
2026-05-04 07:55 43.62006 14.87844 37128 ft 463 kts 120°
2026-05-04 07:56 43.58783 14.95528 37126 ft 463 kts 120°
2026-05-04 07:56 43.55556 15.03200 37132 ft 463 kts 120°
2026-05-04 07:57 43.52322 15.10869 37131 ft 463 kts 120°
2026-05-04 07:57 43.49080 15.18536 37130 ft 463 kts 120°
2026-05-04 07:58 43.45832 15.26198 37132 ft 464 kts 120°
2026-05-04 07:58 43.42575 15.33861 37127 ft 464 kts 120°
2026-05-04 07:59 43.39305 15.41533 37137 ft 465 kts 120°
2026-05-04 07:59 43.36030 15.49197 37130 ft 466 kts 120°
2026-05-04 08:00 43.32746 15.56863 37139 ft 466 kts 120°
2026-05-04 08:02 43.19523 15.87523 37139 ft 469 kts 120°
2026-05-04 08:02 43.16188 15.95204 37143 ft 469 kts 120°
2026-05-04 08:03 43.12846 16.02883 37147 ft 470 kts 120°
2026-05-04 08:03 43.09489 16.10573 37145 ft 471 kts 120°
2026-05-04 08:04 43.06129 16.18252 37140 ft 471 kts 120°
2026-05-04 08:04 43.02757 16.25939 37149 ft 472 kts 120°
2026-05-04 08:05 42.99378 16.33620 37152 ft 472 kts 120°
2026-05-04 08:05 42.95993 16.41296 37152 ft 472 kts 120°
2026-05-04 08:06 42.92598 16.48972 37155 ft 472 kts 120°
2026-05-04 08:06 42.89203 16.56630 37151 ft 472 kts 120°
2026-05-04 08:08 42.75577 16.87166 37158 ft 473 kts 120°
2026-05-04 08:11 42.60098 17.21476 37158 ft 474 kts 120°
2026-05-04 08:11 42.54905 17.32898 37161 ft 474 kts 120°
2026-05-04 08:12 42.51436 17.40502 37172 ft 474 kts 119°
2026-05-04 08:12 42.47961 17.48103 37158 ft 475 kts 119°
2026-05-04 08:13 42.44479 17.55698 37152 ft 475 kts 119°
2026-05-04 08:13 42.40992 17.63285 37156 ft 475 kts 120°
2026-05-04 08:14 42.37501 17.70860 37156 ft 475 kts 120°
2026-05-04 08:16 42.23484 18.01087 37155 ft 476 kts 119°
2026-05-04 08:16 42.19959 18.08640 37158 ft 476 kts 120°
2026-05-04 08:17 42.16428 18.16187 37157 ft 476 kts 120°
2026-05-04 08:17 42.12894 18.23721 37166 ft 476 kts 120°
2026-05-04 08:19 41.98686 18.53816 37164 ft 477 kts 120°
2026-05-04 08:20 41.95116 18.61335 37160 ft 477 kts 120°
2026-05-04 08:20 41.90844 18.68171 37162 ft 481 kts 138°
2026-05-04 08:21 41.85418 18.73427 37159 ft 482 kts 145°
2026-05-04 08:21 41.79868 18.78469 37187 ft 482 kts 145°
2026-05-04 08:22 41.74374 18.83532 37168 ft 483 kts 144°
2026-05-04 08:24 41.52256 19.04051 37166 ft 485 kts 144°
2026-05-04 08:24 41.46689 19.09132 37160 ft 485 kts 149°
2026-05-04 08:25 41.40556 19.12784 37209 ft 483 kts 161°
2026-05-04 08:25 41.34202 19.15782 37175 ft 485 kts 161°
2026-05-04 08:27 41.08741 19.28068 34629 ft 490 kts 160°
2026-05-04 08:28 41.05538 19.29619 34033 ft 491 kts 160°
2026-05-04 08:28 41.02326 19.31173 33361 ft 492 kts 160°
2026-05-04 08:28 40.99111 19.32725 32713 ft 493 kts 160°
2026-05-04 08:28 40.95890 19.34279 32082 ft 493 kts 160°
2026-05-04 08:29 40.92668 19.35833 31447 ft 494 kts 160°
2026-05-04 08:29 40.89431 19.37391 30844 ft 494 kts 160°
2026-05-04 08:29 40.86213 19.38938 30409 ft 490 kts 160°
2026-05-04 08:31 40.64412 19.49375 27041 ft 463 kts 160°
2026-05-04 08:33 40.43753 19.59200 23905 ft 441 kts 159°
2026-05-04 08:33 40.40874 19.60562 23384 ft 439 kts 159°
2026-05-04 08:35 40.21376 19.69748 20248 ft 415 kts 159°
2026-05-04 08:35 40.18667 19.71019 19838 ft 412 kts 159°
2026-05-04 08:35 40.15975 19.72282 19395 ft 410 kts 158°
2026-05-04 08:35 40.13298 19.73536 18989 ft 407 kts 159°
2026-05-04 08:37 39.97575 19.80880 16368 ft 391 kts 158°
2026-05-04 08:37 39.95019 19.82070 15934 ft 389 kts 158°
2026-05-04 08:37 39.92483 19.83252 15517 ft 386 kts 158°
2026-05-04 08:38 39.89957 19.84418 15112 ft 384 kts 160°
2026-05-04 08:38 39.87364 19.85256 14668 ft 384 kts 168°
2026-05-04 08:38 39.84744 19.85824 14261 ft 381 kts 170°
2026-05-04 08:40 39.67646 19.89394 11455 ft 364 kts 169°
2026-05-04 08:40 39.65162 19.89946 11058 ft 361 kts 169°
2026-05-04 08:40 39.62703 19.90494 10769 ft 354 kts 169°
2026-05-04 08:41 39.60287 19.90832 10607 ft 345 kts 184°
2026-05-04 08:41 39.57969 19.90268 10504 ft 334 kts 194°
2026-05-04 08:41 39.55911 19.89631 10362 ft 327 kts 194°
2026-05-04 08:41 39.53761 19.88962 10224 ft 319 kts 194°
2026-05-04 08:42 39.51633 19.88307 10127 ft 310 kts 194°
2026-05-04 08:42 39.49565 19.87677 9796 ft 310 kts 194°
2026-05-04 08:42 39.47597 19.87083 9472 ft 310 kts 194°
2026-05-04 08:42 39.46323 19.86698 9316 ft 308 kts 194°
2026-05-04 08:43 39.44397 19.86117 9035 ft 307 kts 194°
2026-05-04 08:43 39.42334 19.85504 8721 ft 305 kts 194°
2026-05-04 08:43 39.40417 19.84935 8447 ft 303 kts 194°
2026-05-04 08:43 39.38632 19.84405 8198 ft 301 kts 194°
2026-05-04 08:44 39.36602 19.83802 7914 ft 299 kts 195°
2026-05-04 08:44 39.34617 19.83215 7640 ft 297 kts 195°
2026-05-04 08:46 39.27292 19.91269 5771 ft 271 kts 83°
2026-05-04 08:46 39.27360 19.93538 5500 ft 270 kts 83°
2026-05-04 08:46 39.27483 19.95771 5285 ft 267 kts 79°
2026-05-04 08:46 39.28032 19.97972 5099 ft 251 kts 47°
2026-05-04 08:47 39.29328 19.99299 5018 ft 232 kts 18°
2026-05-04 08:47 39.30855 19.99694 4913 ft 218 kts 354°
2026-05-04 08:47 39.32313 19.99373 4808 ft 209 kts 344°
2026-05-04 08:47 39.33709 19.98943 4610 ft 206 kts 344°
2026-05-04 08:48 39.35095 19.98516 4380 ft 204 kts 344°
2026-05-04 08:48 39.36475 19.98107 4167 ft 204 kts 349°
2026-05-04 08:48 39.37902 19.98012 3948 ft 205 kts 356°
2026-05-04 08:48 39.39314 19.97955 3724 ft 207 kts 356°
2026-05-04 08:49 39.40758 19.97882 3495 ft 208 kts 356°
2026-05-04 08:50 39.48723 19.95421 2108 ft 186 kts 343°
2026-05-04 08:50 39.49936 19.94966 1867 ft 177 kts 344°
2026-05-04 08:51 39.51067 19.94537 1720 ft 165 kts 343°
2026-05-04 08:51 39.52141 19.94081 1442 ft 159 kts 336°
2026-05-04 08:51 39.53097 19.93418 1088 ft 152 kts 329°
2026-05-04 08:51 39.54087 19.92805 792 ft 159 kts 335°
2026-05-04 08:52 39.55110 19.92354 550 ft 152 kts 350°
2026-05-04 08:52 39.56136 19.92143 405 ft 147 kts 358°
2026-05-04 08:52 39.57154 19.91983 266 ft 149 kts 353°
2026-05-04 08:52 39.58179 19.91737 210 ft 151 kts 349°
2026-05-04 08:53 39.59182 19.91469 33 ft 147 kts 351°
2026-05-04 08:54 39.60956 19.91154 18 ft 8 kts 167°
2026-05-04 08:55 39.60900 19.91168 18 ft 8 kts 168°
2026-05-04 08:55 39.60846 19.91182 19 ft 8 kts 168°
2026-05-04 08:55 39.60793 19.91194 17 ft 8 kts 171°
2026-05-04 08:55 39.60742 19.91205 17 ft 7 kts 171°
2026-05-04 08:57 39.60706 19.91354 17 ft 0 kts 80°